LRTM Weather Reports


time (UTC)temp
F
wind
direction
speed
knots
gust
knots
rain 1hr
in
rain 24hr
in
rain mn
in
humidity
%
barometer
mb
20260504173326 68 310 5.2 0.0 0.00 0.00 0.00 35 1015.0
20260504171826 72 290 7.8 0.0 0.00 0.00 0.00 29 1015.0
20260504170326 72 290 7.8 0.0 0.00 0.00 0.00 29 1015.0
20260504160327 75 290 11.3 0.0 0.00 0.00 0.00 25 1014.0
20260504150326 75 290 12.2 0.0 0.00 0.00 0.00 25 1015.0
20260504140327 77 280 11.3 0.0 0.00 0.00 0.00 24 1015.0
20260504130326 77 300 9.6 0.0 0.00 0.00 0.00 24 1015.0
20260504110326 75 300 8.7 0.0 0.00 0.00 0.00 25 1017.0
20260504100326 73 320 8.7 0.0 0.00 0.00 0.00 29 1017.0
20260504081826 61 230 5.2 0.0 0.00 0.00 0.00 52 1019.0
20260504080326 61 230 5.2 0.0 0.00 0.00 0.00 52 1019.0
20260504070327 55 240 4.3 0.0 0.00 0.00 0.00 55 1019.0
20260504050336 43 0.9 0.0 0.00 0.00 0.00 81 1019.0
20260504044827 39 0.9 0.0 0.00 0.00 0.00 87 1019.0
20260504043326 39 0.9 0.0 0.00 0.00 0.00 87 1019.0
20260504041826 36 110 1.7 0.0 0.00 0.00 0.00 87 1019.0
20260504040326 36 110 1.7 0.0 0.00 0.00 0.00 87 1019.0
20260504034827 36 1.7 0.0 0.00 0.00 0.00 87 1019.0
20260504033326 36 1.7 0.0 0.00 0.00 0.00 87 1019.0
20260504031826 36 90 1.7 0.0 0.00 0.00 0.00 87 1019.0
20260504030444 36 90 1.7 0.0 0.00 0.00 0.00 87 1019.0
20260504024827 36 230 1.7 0.0 0.00 0.00 0.00 87 1019.0
20260504023326 36 230 1.7 0.0 0.00 0.00 0.00 87 1019.0
20260504021826 37 0 0.0 0.0 0.00 0.00 0.00 87 1019.0
20260504020326 37 0 0.0 0.0 0.00 0.00 0.00 87 1019.0
20260504014826 39 60 2.6 0.0 0.00 0.00 0.00 81 1019.0
20260504013331 39 60 2.6 0.0 0.00 0.00 0.00 81 1019.0
20260504011944 39 0.9 0.0 0.00 0.00 0.00 81 1019.0
20260504010326 39 0.9 0.0 0.00 0.00 0.00 81 1019.0
20260504004944 37 0.9 0.0 0.00 0.00 0.00 87 1019.0
20260504003326 37 0.9 0.0 0.00 0.00 0.00 87 1019.0
20260504001826 37 0.9 0.0 0.00 0.00 0.00 81 1019.0
20260504000326 37 0.9 0.0 0.00 0.00 0.00 81 1019.0
20260503234906 39 280 0.9 0.0 0.00 0.00 0.00 81 1019.0
20260503233326 39 280 0.9 0.0 0.00 0.00 0.00 81 1019.0
20260503231830 39 360 1.7 0.0 0.00 0.00 0.00 81 1019.0
20260503230338 39 360 1.7 0.0 0.00 0.00 0.00 81 1019.0
20260503224826 39 80 2.6 0.0 0.00 0.00 0.00 75 1019.0
20260503223338 39 80 2.6 0.0 0.00 0.00 0.00 75 1019.0
20260503221843 41 80 2.6 0.0 0.00 0.00 0.00 70 1019.0
20260503220408 41 80 2.6 0.0 0.00 0.00 0.00 70 1019.0
20260503214833 43 70 1.7 0.0 0.00 0.00 0.00 76 1019.0
20260503213326 43 70 1.7 0.0 0.00 0.00 0.00 76 1019.0
20260503211827 43 20 0.9 0.0 0.00 0.00 0.00 71 1019.0
20260503210326 43 20 0.9 0.0 0.00 0.00 0.00 71 1019.0
20260503204833 45 0.9 0.0 0.00 0.00 0.00 66 1019.0
20260503203444 45 0.9 0.0 0.00 0.00 0.00 66 1019.0
20260503201826 45 250 2.6 0.0 0.00 0.00 0.00 66 1019.0
20260503200336 45 250 2.6 0.0 0.00 0.00 0.00 66 1019.0
20260503194852 48 0.9 0.0 0.00 0.00 0.00 62 1019.0
20260503193444 48 0.9 0.0 0.00 0.00 0.00 62 1019.0
20260503191826 50 240 0.9 0.0 0.00 0.00 0.00 54 1019.0
20260503190326 50 240 0.9 0.0 0.00 0.00 0.00 54 1019.0
20260503184943 52 210 1.7 0.0 0.00 0.00 0.00 50 1018.0
20260503183326 52 210 1.7 0.0 0.00 0.00 0.00 50 1018.0
20260503181826 54 260 5.2 0.0 0.00 0.00 0.00 51 1018.0
20260503180326 54 260 5.2 0.0 0.00 0.00 0.00 51 1018.0
20260503174846 55 250 6.1 0.0 0.00 0.00 0.00 47 1018.0